Weather History for Sanford, NC

Change the Weather History Date:

Wednesday, January 30, 2013

  Actual Average (KRDU) Record (KRDU)
Temperature  
Mean Temperature 63 °F 42 °F  
Max Temperature 74 °F 52 °F 80 °F (2002)
Min Temperature 52 °F 32 °F 7 °F (1977)
Degree Days  
Heating Degree Days 2 23  
Month to date heating degree days 721  
Since 1 July heating degree days 1972  
Cooling Degree Days 0 0  
Month to date cooling degree days 0  
Year to date cooling degree days 0  
Growing Degree Days 13 (Base 50)    
Moisture  
Dew Point 61 °F    
Average Humidity 80    
Maximum Humidity 97    
Minimum Humidity 63    
Precipitation  
Precipitation 0.30 in 0.11 in 1.09 in (2000)
Month to date precipitation 3.38  
Year to date precipitation 3.38  
Snow  
Snow 0.00 in 0.10 in 3.80 in (1965)
Month to date snowfall 2.8  
Since 1 July snowfall 3.5  
Snow Depth -    
Sea Level Pressure  
Sea Level Pressure 29.79 in    
Wind  
Wind Speed 12 mph (South)    
Max Wind Speed 28 mph    
Max Gust Speed 37 mph    
Visibility 9 miles    
Events Rain    
T = Trace of Precipitation, MM = Missing Value Source: NWS Daily Summary

Daily Weather History Graph

Daily Weather History Graph

Search for Another Location

Airport:

Trip Planner

Search our weather history database for the weather conditions in past years. The results will help you decide how hot, cold, wet, or windy it might be!

Date:

Astronomy

Jan. 30, 2013 Rise Set
Actual Time 7:17 AM EST 5:42 PM EST
Civil Twilight 6:50 AM EST 6:09 PM EST
Nautical Twilight 6:20 AM EST 6:39 PM EST
Astronomical Twilight 5:50 AM EST 7:09 PM EST
Moon 9:28 PM EST (1/30) 8:53 AM EST (1/30)
Length of Visible Light 11h 18m
Length of Day
10h 24m
Waning Gibbous, 88% of the Moon is Illuminated
Jan 30
Waning Gibbous
Feb 3
Last Quarter
Feb 10
New
Feb 17
First Quarter
Feb 25
Full

Hourly Weather History & Observations

Time (EST) Temp. Dew Point Humidity Pressure Visibility Wind Dir Wind Speed Gust Speed Precip Events Conditions
12:15 AM 54.3 °F 52.9 °F 95% 30.08 in 5.0 mi Calm Calm - N/A   Clear
12:35 AM 53.1 °F 51.8 °F 95% 30.07 in 0.8 mi Calm Calm - N/A   Mist
1:15 AM 52.3 °F 51.3 °F 96% 30.06 in 2.0 mi Calm Calm - N/A   Scattered Clouds
1:35 AM 52.2 °F 51.1 °F 96% 30.05 in 0.8 mi Calm Calm - N/A   Mostly Cloudy
2:15 AM 58.1 °F 57.2 °F 97% 30.04 in 7.0 mi South 5.8 mph - N/A   Overcast
2:35 AM 63.0 °F 61.9 °F 96% 30.03 in 10.0 mi South 10.4 mph 17.3 mph N/A   Overcast
2:55 AM 63.9 °F 61.2 °F 91% 30.02 in 10.0 mi South 11.5 mph - N/A   Overcast
3:15 AM 64.4 °F 61.2 °F 89% 30.02 in 10.0 mi South 16.1 mph 23.0 mph N/A   Overcast
3:35 AM 64.4 °F 61.0 °F 89% 30.01 in 10.0 mi South 11.5 mph 18.4 mph N/A   Mostly Cloudy
3:55 AM 64.6 °F 61.2 °F 89% 30.01 in 10.0 mi South 10.4 mph 18.4 mph N/A   Overcast
4:15 AM 64.4 °F 61.0 °F 89% 30.00 in 10.0 mi South 12.7 mph 18.4 mph N/A   Overcast
4:35 AM 64.4 °F 61.0 °F 89% 30.00 in 10.0 mi South 12.7 mph 17.3 mph N/A   Overcast
4:55 AM 64.4 °F 61.0 °F 89% 29.99 in 10.0 mi South 9.2 mph 17.3 mph N/A   Overcast
5:15 AM 64.6 °F 61.2 °F 89% 29.99 in 10.0 mi South 10.4 mph - N/A   Overcast
5:35 AM 64.8 °F 61.2 °F 88% 29.98 in 10.0 mi South 11.5 mph - N/A   Overcast
5:55 AM 65.3 °F 61.3 °F 87% 29.98 in 10.0 mi South 12.7 mph 16.1 mph N/A   Overcast
6:15 AM 65.3 °F 61.7 °F 88% 29.96 in 10.0 mi South 16.1 mph 21.9 mph N/A   Overcast
6:35 AM 65.5 °F 61.7 °F 88% 29.96 in 10.0 mi South 11.5 mph 21.9 mph N/A   Overcast
6:55 AM 65.5 °F 61.7 °F 88% 29.95 in 10.0 mi South 11.5 mph 21.9 mph N/A   Overcast
7:15 AM 65.8 °F 61.7 °F 86% 29.95 in 10.0 mi South 11.5 mph 21.9 mph N/A   Overcast
7:35 AM 66.0 °F 61.7 °F 86% 29.95 in 10.0 mi South 11.5 mph 21.9 mph N/A   Overcast
7:55 AM 66.2 °F 61.9 °F 86% 29.94 in 10.0 mi South 12.7 mph 23.0 mph N/A   Overcast
8:15 AM 66.6 °F 61.7 °F 84% 29.93 in 10.0 mi South 16.1 mph 25.3 mph N/A   Overcast
8:35 AM 67.1 °F 61.3 °F 82% 29.93 in 10.0 mi SSW 18.4 mph 25.3 mph N/A   Overcast
8:55 AM 67.1 °F 61.3 °F 82% 29.93 in 10.0 mi South 20.7 mph 28.8 mph N/A   Overcast
9:15 AM 67.5 °F 61.7 °F 82% 29.92 in 10.0 mi South 18.4 mph 28.8 mph N/A   Overcast
9:35 AM 67.6 °F 61.7 °F 81% 29.91 in 10.0 mi South 16.1 mph 25.3 mph N/A   Overcast
9:55 AM 68.0 °F 61.9 °F 81% 29.91 in 10.0 mi South 20.7 mph 27.6 mph N/A   Overcast
10:15 AM 68.0 °F 62.1 °F 81% 29.92 in 10.0 mi South 17.3 mph 25.3 mph N/A   Overcast
10:35 AM 68.0 °F 62.1 °F 81% 29.91 in 10.0 mi South 17.3 mph 27.6 mph N/A   Overcast
10:55 AM 68.4 °F 62.2 °F 81% 29.90 in 10.0 mi South 17.3 mph 27.6 mph N/A   Overcast
11:15 AM 68.4 °F 62.2 °F 81% 29.90 in 10.0 mi South 15.0 mph 26.5 mph N/A   Overcast
11:35 AM 68.4 °F 62.2 °F 81% 29.88 in 10.0 mi South 16.1 mph 27.6 mph N/A   Overcast
11:55 AM 66.6 °F 63.3 °F 89% 29.87 in 7.0 mi South 12.7 mph 24.2 mph 0.01 in Rain Rain
12:15 PM 67.1 °F 63.5 °F 88% 29.85 in 10.0 mi South 15.0 mph 21.9 mph N/A   Overcast
12:35 PM 67.1 °F 63.5 °F 88% 29.83 in 10.0 mi South 15.0 mph 19.6 mph N/A   Drizzle
12:55 PM 68.0 °F 64.0 °F 87% 29.82 in 10.0 mi South 10.4 mph 20.7 mph N/A   Overcast
1:15 PM 70.2 °F 63.1 °F 78% 29.80 in 10.0 mi South 13.8 mph 21.9 mph N/A   Overcast
1:35 PM 71.2 °F 63.0 °F 75% 29.78 in 10.0 mi South 17.3 mph 25.3 mph N/A   Overcast
1:55 PM 71.1 °F 62.6 °F 75% 29.77 in 10.0 mi South 18.4 mph 29.9 mph N/A   Overcast
2:15 PM 72.0 °F 62.4 °F 72% 29.75 in 10.0 mi South 16.1 mph 21.9 mph N/A   Overcast
2:35 PM 72.5 °F 62.1 °F 70% 29.73 in 10.0 mi SSE 18.4 mph 27.6 mph N/A   Overcast
2:55 PM 72.9 °F 62.6 °F 70% 29.71 in 10.0 mi South 11.5 mph 26.5 mph N/A   Overcast
3:15 PM 73.0 °F 62.1 °F 68% 29.71 in 10.0 mi South 17.3 mph 26.5 mph N/A   Overcast
3:35 PM 73.6 °F 61.9 °F 67% 29.69 in 10.0 mi SSE 15.0 mph 24.2 mph N/A   Overcast
3:55 PM 73.8 °F 61.2 °F 65% 29.68 in 10.0 mi South 24.2 mph 29.9 mph N/A   Mostly Cloudy
4:15 PM 74.1 °F 61.0 °F 63% 29.67 in 10.0 mi South 18.4 mph 27.6 mph N/A   Mostly Cloudy
4:35 PM 73.6 °F 60.8 °F 64% 29.66 in 10.0 mi South 13.8 mph 25.3 mph N/A   Mostly Cloudy
4:55 PM 73.0 °F 60.4 °F 65% 29.65 in 10.0 mi SSE 20.7 mph 29.9 mph N/A   Mostly Cloudy
5:15 PM 72.0 °F 60.6 °F 67% 29.65 in 10.0 mi South 18.4 mph 27.6 mph N/A   Scattered Clouds
5:35 PM 71.8 °F 60.6 °F 68% 29.64 in 10.0 mi South 19.6 mph 28.8 mph N/A   Mostly Cloudy
5:55 PM 71.4 °F 60.4 °F 68% 29.64 in 10.0 mi South 15.0 mph 23.0 mph N/A   Overcast
6:15 PM 70.9 °F 60.1 °F 69% 29.61 in 10.0 mi South 16.1 mph 25.3 mph N/A   Mostly Cloudy
6:35 PM 70.9 °F 59.5 °F 67% 29.61 in 10.0 mi South 15.0 mph 23.0 mph N/A   Scattered Clouds
6:55 PM 70.7 °F 59.5 °F 68% 29.58 in 10.0 mi SSE 16.1 mph 25.3 mph N/A   Scattered Clouds
7:15 PM 70.7 °F 59.4 °F 67% 29.57 in 10.0 mi South 20.7 mph 33.4 mph N/A   Scattered Clouds
7:35 PM 70.7 °F 59.0 °F 66% 29.57 in 10.0 mi South 21.9 mph 28.8 mph N/A   Scattered Clouds
7:55 PM 70.7 °F 59.0 °F 66% 29.55 in 10.0 mi South 18.4 mph 33.4 mph N/A   Mostly Cloudy
8:15 PM 70.5 °F 59.4 °F 68% 29.54 in 10.0 mi South 16.1 mph 35.7 mph N/A   Mostly Cloudy
8:35 PM 70.7 °F 59.9 °F 69% 29.53 in 10.0 mi South 21.9 mph 35.7 mph N/A   Mostly Cloudy
8:55 PM 70.7 °F 60.1 °F 69% 29.53 in 10.0 mi South 27.6 mph 36.8 mph N/A   Mostly Cloudy
9:15 PM 70.9 °F 60.4 °F 69% 29.52 in 10.0 mi South 20.7 mph 32.2 mph N/A   Overcast
9:35 PM 70.9 °F 60.8 °F 70% 29.50 in 10.0 mi South 24.2 mph 35.7 mph N/A   Overcast
9:55 PM 71.1 °F 60.8 °F 70% 29.50 in 10.0 mi South 19.6 mph 32.2 mph N/A   Overcast
10:15 PM 70.2 °F 61.3 °F 74% 29.47 in 10.0 mi South 24.2 mph 34.5 mph N/A Rain Rain
10:35 PM 68.2 °F 62.2 °F 81% 29.45 in 7.0 mi South 24.2 mph 34.5 mph N/A Rain Light Rain
10:55 PM 67.6 °F 62.8 °F 84% 29.43 in 10.0 mi SSE 16.1 mph 36.8 mph 0.01 in Rain Rain
11:15 PM 68.0 °F 62.6 °F 83% 29.41 in 7.0 mi SSE 18.4 mph 35.7 mph N/A Rain Rain
11:35 PM 64.0 °F 61.0 °F 90% 29.49 in 1.5 mi SW 18.4 mph 34.5 mph 0.28 in Rain Heavy Rain